Location: Limerick
(52.6650°N, 8.6230°W)
Time: 15:37:41
(UTC+00:00)

ISS - Pass Details

Date: 21 January 2020
Orbit: 415 x 421 km, 51.6° (Epoch: 18 January)

Event Time Altitude Azimuth Distance (km) Brightness Sun altitude
Rises 19:44:18 0° 220° (SW) 2,356 0.6 -24.5°
Reaches altitude 10° 19:46:36 10° 207° (SSW) 1,494 -0.7 -24.8°
Enters shadow 19:47:02 12° 203° (SSW) 1,354 -0.9 -24.9°
